DELTA 1 R/B

基本信息
目录编号:
3670
目录名称:
DELTA 1 R/B
国际标识:
1969-009B
轨道中心:
EARTH
物体状态:
在轨
发射日期:
1969-01-30 UTC
国别:
美国 (US)
轨道信息
数据来源: 国际轨道数据
星历时间: 2026-07-13T11:07:53+0800
半长轴: 8306.469km
偏心率: 0.1629092
轨道倾角: 88.419°
近地点辐角: 231.831°
升交点赤经: 102.372°
平近点角: 112.470°
近地点: 575.131km
远地点: 3281.533km
周期: 125.570分钟
每日圈数: 11.467747
详细信息
发射场:
AFWTR
轨道高度:
LEO
数据来源:
AOE Integration Group
参考系:
TEME
时间系统:
UTC
历元类型:
SGP4
2D轨道图
3D轨道图
轨道高度分析图
轨道倾角分析图
轨道综合分析图
查看轨道综合分析图